User: anonymous   Login
Location: Brede
(50.9167°N, 0.6000°E)
Time: 02:26:10
(UTC+00:00)
Language:

Cosmos 1743 - Orbit

View from above orbital plane
View from above orbital plane
View from above satellite
View from above satellite

Ground track
Ground track

The orbit data is extracted from the following two-line orbital elements,

1 16719U 86034A   20302.57124059 +.00001076 +00000-0 +54679-4 0  9994
2 16719 082.5544 226.9695 0011782 351.9086 180.8204 15.15778665881599
Epoch (UTC): 28 October 2020 13:42:35
Eccentricity: 0.0011782
inclination: 82.5544°
perigee height: 510 km
apogee height: 527 km
right ascension of ascending node: 226.9695°
argument of perigee: 351.9086°
revolutions per day: 15.15778665
mean anomaly at epoch: 180.8204°
orbit number at epoch: 88159

The dashed part of the orbit path shows where the satellite is in the earth's shadow,  

DLR